Change the Weather History Date:

Thursday, September 27, 2012

  Actual Average Record
Temperature  
Mean Temperature 60 °F -  
Max Temperature 64 °F 68 °F 84 °F (1958)
Min Temperature 57 °F 48 °F 29 °F (1947)
Degree Days  
Heating Degree Days 4    
Growing Degree Days 10 (Base 50)    
Moisture  
Dew Point 57 °F    
Average Humidity 90    
Maximum Humidity 100    
Minimum Humidity 68    
Precipitation  
Precipitation 0.60 in - - ()
Sea Level Pressure  
Sea Level Pressure 30.14 in    
Wind  
Wind Speed 4 mph (North)    
Max Wind Speed 12 mph    
Max Gust Speed -    
Visibility 6 miles    
Events Fog , Rain , Thunderstorm    
Averages and records for this station are not official NWS values.
T = Trace of Precipitation, MM = Missing Value Source: NWS Daily Summary

Daily Weather History Graph

Daily Weather History Graph

Search for Another Location

Airport or City:

Trip Planner

Search our weather history database for the weather conditions in past years. The results will help you decide how hot, cold, wet, or windy it might be!

Date:

Astronomy

Sep. 27, 2012 Rise Set
Actual Time 7:04 AM EDT 6:59 PM EDT
Civil Twilight 6:37 AM EDT 7:26 PM EDT
Nautical Twilight 6:05 AM EDT 7:58 PM EDT
Astronomical Twilight 5:32 AM EDT 8:30 PM EDT
Moon 5:30 PM EDT (9/27) 4:30 AM EDT (9/27)
Length of Visible Light 12h 49m
Length of Day
11h 54m
Waxing Gibbous, 94% of the Moon is Illuminated
Sep 27
Waxing Gibbous
Sep 29
Full
Oct 8
Last Quarter
Oct 15
New
Oct 21
First Quarter

Hourly Weather History & Observations

Time (EDT) Temp. Dew Point Humidity Pressure Visibility Wind Dir Wind Speed Gust Speed Precip Events Conditions
12:15 AM 62.8 °F 58.3 °F 85% 30.11 in 10.0 mi WSW 5.8 mph - N/A   Overcast
12:35 AM 63.0 °F 58.1 °F 84% 30.11 in 10.0 mi Calm Calm - N/A   Overcast
12:55 AM 62.6 °F 58.1 °F 85% 30.11 in 10.0 mi WSW 3.5 mph - N/A   Overcast
1:15 AM 63.0 °F 58.1 °F 84% 30.11 in 10.0 mi SW 3.5 mph - N/A   Overcast
1:55 AM 61.7 °F 59.9 °F 94% 30.12 in 5.0 mi West 8.1 mph - N/A Rain Rain
2:15 AM 61.3 °F 59.4 °F 93% 30.12 in 7.0 mi SSW 5.8 mph - 0.02 in Rain Rain
2:35 AM 61.9 °F 59.9 °F 93% 30.12 in 10.0 mi SW 5.8 mph - 0.02 in Rain Rain
3:15 AM 60.8 °F 59.2 °F 94% 30.12 in 3.0 mi Calm Calm - N/A   Overcast
3:55 AM 60.8 °F 59.5 °F 96% 30.12 in 5.0 mi South 4.6 mph - N/A   Overcast
4:15 AM 61.0 °F 59.9 °F 96% 30.12 in 5.0 mi Calm Calm - N/A Rain Rain
4:35 AM 60.8 °F 59.5 °F 96% 30.13 in 3.0 mi Calm Calm - 0.04 in Rain Rain
4:55 AM 60.8 °F 59.5 °F 96% 30.13 in 3.0 mi Calm Calm - N/A Rain Rain
5:15 AM 60.8 °F 59.4 °F 95% 30.14 in 4.0 mi SW 3.5 mph - 0.01 in   Drizzle
5:35 AM 60.8 °F 59.5 °F 96% 30.14 in 5.0 mi Calm Calm - 0.01 in   Overcast
5:53 AM 60.8 °F 59.0 °F 94% 30.15 in 5.0 mi West 4.6 mph - N/A   Overcast
6:53 AM 60.8 °F 59.0 °F 94% 30.16 in 4.0 mi West 4.6 mph - N/A   Overcast
7:53 AM 60.8 °F 59.0 °F 94% 30.18 in 3.0 mi South 3.5 mph - N/A   Overcast
8:15 AM 60.8 °F 59.0 °F 94% 30.18 in 1.5 mi Calm Calm - N/A Fog Fog
8:35 AM 60.8 °F 60.8 °F 100% 30.19 in 0.2 mi Calm Calm - N/A Fog Fog
8:50 AM 59.0 °F 59.0 °F 100% 30.19 in 1.5 mi NE 8.1 mph - N/A   Overcast
9:15 AM 59.0 °F 55.4 °F 88% 30.19 in 5.0 mi NE 11.5 mph - N/A   Overcast
9:53 AM 59.0 °F 53.6 °F 82% 30.20 in 10.0 mi NE 9.2 mph - N/A   Mostly Cloudy
10:53 AM 60.8 °F 53.6 °F 77% 30.23 in 10.0 mi NE 4.6 mph - N/A   Overcast
11:53 AM 60.8 °F 53.6 °F 77% 30.20 in 10.0 mi NE 4.6 mph - N/A   Mostly Cloudy
12:53 PM 60.8 °F 55.4 °F 82% 30.19 in 7.0 mi Variable 3.5 mph - N/A   Overcast
1:53 PM 62.6 °F 55.4 °F 77% 30.18 in 7.0 mi Calm Calm - N/A   Scattered Clouds
2:53 PM 64.4 °F 55.4 °F 73% 30.16 in 7.0 mi Variable 3.5 mph - N/A   Scattered Clouds
3:53 PM 64.4 °F 55.4 °F 73% 30.14 in 7.0 mi Variable 3.5 mph - N/A   Mostly Cloudy
4:53 PM 64.4 °F 53.6 °F 68% 30.14 in 7.0 mi Variable 3.5 mph - N/A   Mostly Cloudy
5:50 PM 62.6 °F 55.4 °F 77% 30.14 in 7.0 mi Variable 4.6 mph - N/A Rain Light Rain
6:53 PM 60.8 °F 57.2 °F 88% 30.14 in 5.0 mi Variable 3.5 mph - N/A Rain Light Rain
7:53 PM 59.0 °F 57.2 °F 94% 30.13 in 7.0 mi Variable 4.6 mph - N/A Rain Light Rain
8:53 PM 59.0 °F 57.2 °F 94% 30.14 in 3.0 mi Variable 4.6 mph - N/A Rain Heavy Rain
9:15 PM 59.0 °F 57.7 °F 96% 30.12 in 2.5 mi ENE 4.6 mph - 0.18 in Rain Heavy Rain
9:35 PM 59.0 °F 57.7 °F 96% 30.13 in 3.0 mi NNE 5.8 mph - 0.27 in Rain Rain
9:55 PM 58.5 °F 57.2 °F 96% 30.12 in 4.0 mi NNE 6.9 mph - 0.01 in Rain Rain
10:15 PM 58.1 °F 56.5 °F 94% 30.12 in 4.0 mi NNE 4.6 mph - 0.08 in Rain Rain
10:35 PM 58.1 °F 56.8 °F 96% 30.12 in 2.5 mi NNE 4.6 mph - 0.19 in Rain , Thunderstorm Heavy Thunderstorms and Rain
10:55 PM 58.1 °F 56.7 °F 95% 30.12 in 3.0 mi North 6.9 mph - 0.01 in Rain Rain
11:15 PM 57.6 °F 56.3 °F 96% 30.12 in 4.0 mi NNE 6.9 mph - 0.05 in Rain Heavy Rain
11:35 PM 57.6 °F 56.3 °F 96% 30.12 in 5.0 mi NE 8.1 mph - 0.07 in Rain , Thunderstorm Rain
11:55 PM 57.2 °F 55.9 °F 96% 30.11 in 7.0 mi NE 5.8 mph - N/A   Overcast